DELTA 1 DEB, 10709

Orbit data source: Space-Track

DELTA 1 DEB, 10709 is space debris in SSO originally from a launch on Thu, 29 Jul 1976 UTC launched from the Air Force Western Test Range (AFWTR). Debris objects in space refer to the collection of defunct objects orbiting the Earth. Examples of debris include non-operational satellites, rocket bodies, and fragments generated from explosions, collisions, or faulty payload assembly.

Loading next visibility...
DELTA 1 DEB details
Identifier
10709, 1976-077AE
Orbit
SSO
Last TLE update5 hours ago
Origin
Flag of USGSFC (US)
ManufacturerUnknown
MissionSpacecraft
Bus & MotorUnknown
MassUnknown
Launch date (UTC)
1976-07-29 (48 years ago)
Launch vehicleUnknown
Launch site
Air Force Western Test Range (AFWTR)
Object type
Payload
Rocket body
Debris
Shape & HBRUnknown
Radar Cross SectionMedium (>0.1 m² and <1 m²)

Expand to show TLE details & history

TLE from 5 hours ago
0 DELTA 1 DEB
1 10709U 76077AE  25018.79976762  .00000385  00000-0  29542-2 0  9993
2 10709 101.9130  86.9569 0017939  78.7285  35.8646 12.46515705202184
Epoch: 2025-01-18T19:11Z
Definitive object data (Epoch: 2025-01-18T19:11:39.922Z)
Latitude62.81622°
Longitude-115.27543°
Altitude1,478.289 km
Speed7.135 km/s
True Right ascension19h 24m 20s
True Declination62° 41' 21"
Sunlit
Object was in daylight at TLE epoch
Visualization TLE readout
Latitude-71.1853°
Longitude-177.25106°
Altitude1,519.461 km
Speed7.099 km/s
Apparent Right ascension13h 34m 02s
Apparent Declination-58° 27' 04"
Sunlit
Object is in daylight
Visualization observer readout
Local Sidereal Time00:41:59
Azimuth199.842° SSW
Elevation-69.689°
Doppler factor1
Orbital elements
Apogee altitude1,490.755 km
Perigee altitude1,462.573 km
Semi-major axis7,854.801 km
Eccentricity0.0017939
Inclination101.913°
RAAN86.9569°
Arg. of periapsis78.7285°
True anomaly35.98525°
Mean anomaly35.8646°
Eccentric anomaly35.92491°
Mean motion3.11774 °/min
BSTAR0.0029542
Orbital period115.47 mins
Loading maneuver chart data...
Loading historical data...
Loading historical data...
Loading historical data...
Loading historical data...
Loading historical data...
Loading historical data...
Loading historical data...

DELTA 1 DEB Visibility forecast

Observer location: undefined°, undefined

Span
Click to sort rows by Start time (UTC) header in descending order
Start Az.
Max El. time (UTC)
Max El. Az.
Max El.
End time (UTC)
End Az.
12 mins2025-01-19 02:26:56.178Z103.488° ESE2025-01-19 02:32:56.178Z56.704° ENE22.798°2025-01-19 02:38:56.178Z7.018° NNE
15 mins2025-01-19 04:18:56.178Z167.517° S2025-01-19 04:25:56.178Z271.786° WNW44.347°2025-01-19 04:33:56.178Z339.995° N
6 mins2025-01-19 06:17:56.178Z253.083° W2025-01-19 06:19:56.178Z268.275° W13.459°2025-01-19 06:23:56.178Z297.832° NW
13 mins2025-01-19 16:25:56.178Z40.634° NE2025-01-19 16:31:56.178Z103.062° ESE31.959°2025-01-19 16:38:56.178Z163.92° S
14 mins2025-01-19 18:18:56.178Z2.292° NNE2025-01-19 18:24:56.178Z300.361° NW36.651°2025-01-19 18:32:56.178Z226.764° WSW
|